Flight Information

DEPARTURE
GRAND JUNCTION, CO
Elevation:
4861
Runways:
11/29 - 10503x150 - ASPH-E
4/22 - 5501x75 - ASPH-G
ATIS:
118.55
Ground:
121.7
Tower:
GRAND JUNCTION TOWER 118.1
DESTINATION
,
Elevation:
TPA:
1000 (est.)


6256 NM78° True-13° Var64° HDG

Flight Plan:
(click to file on line)

1. Type
2. Aircraft Identification
3. Aircraft Type / Special Equipment
4. True Airspeed
kts
5. Departure Airport
(ICAO code)
6. Arriving Airport
(ICAO code)
7. Cruising Altitude
ft
8. Alternate Airport
(ICAO code)
9. Route of Flight
10. Remarks


00:00:00 Departure ATIS: Destination ATIS:

Clearance Limit:
Route:
Altitude: Expect in minutes
Frequency:
Transponder: (7500 Hijack / 7600 Lost Comms / 7700 Emergency)


KGJT 211653Z 18005KT 10SM CLR 16/M04 A3051 RMK AO2 SLP295 T01611039
Time: 2021-09-21T16:53:00Z
1632245057
Winds: 180 @ 5 kts
Visibility: 10.0 sm
Clouds (AGL): CLR
Temperature: 16.1 C
Dew Point: -3.9 C
Pressure: 30.510826 in Hgbr


Notes:

Data extracted from FAA Digital Chart Supplement. Effective: 0901Z Thursday, AUG 12, 2021 to 0901Z Thursday, OCT 7, 2021
Current ATIS data is provided courtisy of PilotEdge.